Hors Challenge

Les 10.30 Km De Schaerbeek (5.00 km)

vendredi 17 septembre 2021

Le Classement original se trouve sur : http://www.chronorace.be        
 
LES 10.30 KM DE SCHAERBEEK
DISTANCE : 5.00 km
vendredi 17 septembre 2021
 
Place Dos NOM Equipe Catégorie Pl/cat temps temps/km Vitesse
1 3183 ELKHALDI MOHAMED   V1 1 0:18:45 03:45 16.00
2 5005 JAZAERI AMIR ROYAL EXCELSIOR SH 1 0:18:46 03:45 15.99
3 5019 VELDEMAN VINCENT RCAS SH 2 0:19:05 03:49 15.72
4 3184 VALENTIN GREGOIRE RUN ATTITUDE SH 3 0:19:31 03:54 15.37
5 3220 GASCHARD ANTHONY   SH 4 0:19:32 03:54 15.36
6 5042 DELEMAZURE CLÉMENT RCAS SH 5 0:19:41 03:56 15.24
7 5040 LELION ACHILLE   JH 1 0:19:48 03:58 15.15
8 3182 HAMICH MHAMED   V1 2 0:20:09 04:02 14.89
9 5039 SOENEN VIRGINIE SMAC SD 1 0:20:12 04:02 14.85
10 5055 GELDERS ANTOINE   SH 6 0:20:13 04:03 14.84
11 5032 DI TULLIO IWAN   SH 7 0:20:58 04:12 14.31
12 3204 DE STAERCKE GRINGOIRE KITURO SH 8 0:20:59 04:12 14.30
13 3195 DE STAERCKE HAROLD KITURO SH 9 0:21:03 04:13 14.25
14 34740 HORWOOD JOE   V1 3 0:21:08 04:14 14.20
15 343 FADOUL KARIM   V1 4 0:21:08 04:14 14.20
16 5009 SCHREURS SÉBASTIEN GTC V1 5 0:21:18 04:16 14.08
17 3206 CASAL PATRICIA FUNDACION GALIC SD 2 0:22:01 04:24 13.63
18 79 ABDELHAFID BOIZORAGH   SH 10 0:22:01 04:24 13.63
19 3001 MOYEN CEDRIC   SH 11 0:22:25 04:29 13.38
20 5038 FERNÁNDEZ SEBASTIÁN MARTA RCAS SD 3 0:22:41 04:32 13.23
21 5002 MAGUIRE JOSEPH ZATAC DE BRUXEL V1 6 0:23:12 04:38 12.93
22 3180 VIGNY LAURENT   V2 1 0:23:12 04:38 12.93
23 5046 VANHALEWYN BASILE   JH 2 0:23:29 04:42 12.78
24 994 DUSSART CORENTIN PERSPECTIVE.BRU V1 7 0:23:29 04:42 12.78
25 40371 BOUGHENOU MOHAMED SAID   V2 2 0:23:43 04:45 12.65
26 5061 CROISET SOPHIE DACM SD 4 0:23:44 04:45 12.64
27 5047 CALUWÉ ARNAUD RESC SH 12 0:23:47 04:45 12.61
28 3199 GAUFILLIER HENRI   SH 13 0:23:50 04:46 12.59
29 5048 KRUIJVER WOUTER KRUIJVER SH 14 0:24:31 04:54 12.24
30 34742 ALLIAUME JEREMIE   V1 8 0:24:52 04:58 12.06
31 5030 LEHOUX YAN   V1 9 0:24:57 04:59 12.02
32 3185 VIAL BERTRAND CSF MYSTERE SH 15 0:25:29 05:06 11.77
33 3218 GUILLAUD ANTHIME   JH 3 0:25:30 05:06 11.76
34 356 MOUGEL LISA VAC VILVOORDE JF 1 0:25:48 05:10 11.63
35 3208 MATHIS COLIN KITURO SH 16 0:25:52 05:10 11.60
36 3197 RINSBERGH BAPTISTE KITURO SH 17 0:26:01 05:12 11.53
37 101 EZZAOUYA HASSAN   V1 10 0:26:17 05:15 11.41
38 139 VAN DEN BREMPT ZAO   JH 4 0:26:21 05:16 11.39
39 3217 GUILLAUD MATHIAS   JH 5 0:26:21 05:16 11.39
40 3200 SONG DAVID KITURO SH 18 0:26:36 05:19 11.28
41 34850 RAYNAUD FRÉDÉRIC PERSPECTIVE.BRU V2 3 0:26:48 05:22 11.19
42 34854 ADJOURI AMINE PERSPECTIVE.BRU SH 19 0:26:53 05:23 11.16
43 5004 NGOSSO LONDÉ ECOLO-GROEN 103 V1 11 0:27:12 05:26 11.03
44 99 VANUFFELEN MURIEL JOGGANS A1 1 0:27:15 05:27 11.01
45 3222 MANSOURI LEILA   SD 5 0:27:17 05:27 11.00
46 34699 HOHL SARAH   SD 6 0:27:25 05:29 10.94
47 5096 HEYEZ MAXENCE THE.RUNNING.FAM SH 20 0:27:39 05:32 10.85
48 5069 FALCIOLA LUCA RCAS V2 4 0:27:57 05:35 10.73
49 69 VAN LEEMPUT DEAN   V1 12 0:28:10 05:38 10.65
50 349 ZARATE NATHAN   JH 6 0:28:16 05:39 10.61
51 5025 JAENADA FEDERICO   JH 7 0:28:24 05:41 10.56
52 5098 LEFEVER MATHEO THE.RUNNING.FAM JH 8 0:28:26 05:41 10.55
53 135 ALYOUSIF AWADH   SH 21 0:28:26 05:41 10.55
54 3198 COUSTRY MAXIME KITURO SH 22 0:28:26 05:41 10.55
55 98 GILLARD BERTRAND   SH 23 0:28:30 05:42 10.53
56 34851 DE BO PAULINE PERSPECTIVE.BRU A1 2 0:28:33 05:43 10.51
57 5031 GREBE FLORIAN   SH 24 0:28:34 05:43 10.50
58 5064 DIEU FRANÇOIS   SH 25 0:28:34 05:43 10.50
59 5015 BRUN LUCAS   SH 26 0:28:35 05:43 10.50
60 5017 XIAOXING MU   SD 7 0:28:40 05:44 10.47
61 100 LARD FABRICE LES GUSAIN BOLT V1 13 0:28:47 05:45 10.42
62 5075 GIELEN MIRTHE   JF 2 0:28:50 05:46 10.40
63 3004 MALAISSE MATTEO   JH 9 0:28:57 05:47 10.36
64 5076 GIELEN SARAH   JF 3 0:29:00 05:48 10.34
65 1478 DEWEZ GAUTHIER LES GUSAIN BOLT SH 27 0:29:05 05:49 10.32
66 1493 VERMEULEN STEYAERT SONIA   SH 28 0:29:08 05:50 10.30
67 1242 RANA SUNIL KUMAR   SH 29 0:29:27 05:53 10.19
68 5062 BUZOI NORICA-LIVIA   SH 30 0:29:29 05:54 10.18
69 5067 LABEEUW GUILLAUME RCAS JH 10 0:29:35 05:55 10.14
70 3191 LEGRIS OSCAR RCAS12089 JH 11 0:29:37 05:55 10.13
71 34719 THIMPONT LIN PERSPECTIVE.BRU SD 8 0:29:38 05:56 10.12
72 2 LEVAUX PIERRE   JH 12 0:29:41 05:56 10.11
73 3194 BOUCHART GERFAUD KITURO xxx   0:29:43 05:57 10.10
74 3179 EVERY-CLAYTON REUBEN   JH 13 0:29:45 05:57 10.08
75 3230 GODART YOAN   SH 31 0:29:46 05:57 10.08
76 1455 BILGE MEHMET   SH 32 0:29:50 05:58 10.06
77 5071 COULIER EVIE RCAS A1 3 0:29:58 06:00 10.01
78 5058 MIEVIS LIONEL RESC JH 14 0:30:07 06:01 9.96
79 102 MIEVIS STEPHANE RESC V1 14 0:30:08 06:02 9.96
80 344 SEGERS MICHEL   SH 33 0:30:21 06:04 9.88
81 34845 KAISIN COLINE   SD 9 0:30:24 06:05 9.87
82 5086 BLERO EDGAR   JH 15 0:30:54 06:11 9.71
83 5018 KEAVENEY TRIONA   A1 4 0:30:54 06:11 9.71
84 5006 GIRAL ELENA   SD 10 0:30:56 06:11 9.70
85 5021 LAIU ROXANA   A1 5 0:30:58 06:12 9.69
86 34741 POURMOHAMMAD MARYAM   SD 11 0:31:15 06:15 9.60
87 5036 MOHRS SIMONE   SD 12 0:31:17 06:15 9.59
88 3202 PROVOST IOLITA KITURO SD 13 0:31:18 06:16 9.58
89 3201 GOUALOU ANNABELLE KITURO SD 14 0:31:18 06:16 9.58
90 5051 HANNECART CÉLINE   SD 15 0:31:22 06:16 9.56
91 77 CARPUS MIHAELA   A1 6 0:31:23 06:17 9.56
92 348 GUILLAUME JACQUES JJCPMF SCHAERBE V3 1 0:31:25 06:17 9.55
93 34807 JABBOUR STEPHANIE   SD 16 0:31:27 06:17 9.54
94 3169 SI M'HAMMED DALILA   SD 17 0:31:33 06:19 9.51
95 80 OUNOUGHI MATHIS   JH 16 0:31:33 06:19 9.51
96 5007 OUNOUGHI JULIEN   V1 15 0:31:41 06:20 9.47
97 1577 NOURISSIER AUGUSTIN   SH 34 0:31:42 06:20 9.46
98 5089 HIGUET CORENTIN   SH 35 0:31:58 06:24 9.38
99 81 LEGRIS LOUIS RCAS JH 17 0:31:58 06:24 9.38
100 34858 BATARDY SOPHIE PERSPECTIVE.BRU A1 7 0:32:04 06:25 9.36
101 34812 VANNESTE ELEONORE KITURO SD 18 0:32:06 06:25 9.35
102 34813 GUNS OLIVIER KITURO SH 36 0:32:07 06:25 9.34
103 1210 FRANCART JULIE RCAS A1 8 0:32:10 06:26 9.33
104 5008 VOISIN MANON   SD 19 0:32:14 06:27 9.31
105 5045 LEGRIS JEROME RCAS V1 16 0:32:16 06:27 9.30
106 342 VAN DEN BREMPT LIU RCAS JF 4 0:32:31 06:30 9.23
107 5072 SANTANA GREICY   A1 9 0:32:41 06:32 9.18
108 5001 CLAUSSE ALESSIA   SD 20 0:32:46 06:33 9.16
109 3 LEVAUX JULIETTE   JH 18 0:32:48 06:34 9.15
110 5079 VANWELDE ALIX   JF 5 0:32:48 06:34 9.15
111 5082 MEYS CHRISTOPHE   V1 17 0:32:54 06:35 9.12
112 3002 ALVAREZ SAEZ ELVIRA   A1 10 0:32:54 06:35 9.12
113 5059 VAN LIER STEFAN   V3 2 0:32:56 06:35 9.11
114 34745 HOFMANS HERVE   V2 5 0:32:57 06:35 9.10
115 5043 JOSE FELIX ESPANA   JH 19 0:32:58 06:36 9.10
116 5085 VANWELDE BENJAMIN   JH 20 0:33:02 06:36 9.08
117 34739 HERVE MARYSE   A2 1 0:33:10 06:38 9.05
118 3181 BORNAS CAYVELA DAMIEN   V1 18 0:33:10 06:38 9.05
119 1245 FREITAS MARIA   SD 21 0:33:13 06:39 9.03
120 1246 ABDELILLAH BRAHIMI   SH 37 0:33:13 06:39 9.03
121 347 CARPENTIER MARIE-ÈVE   SD 22 0:33:14 06:39 9.03
122 5029 DEREUX TRISTAN   SH 38 0:33:22 06:40 8.99
123 34859 PENZER HANNA   SD 23 0:33:23 06:41 8.99
124 1282 VAN DEN HOVE QUENTIN   V1 19 0:33:24 06:41 8.98
125 3219 VANDENHOVE ALIX   JH 21 0:33:25 06:41 8.98
126 345 SCHATTENS PAULINE   SD 24 0:33:28 06:42 8.96
127 34808 RERO CAROLANE   SD 25 0:33:30 06:42 8.96
128 34635 KORNIS AMANDINE   SD 26 0:33:31 06:42 8.95
129 5070 DUPONT VRGINIE RCAS A1 11 0:33:36 06:43 8.93
130 5073 LAMBERT JOËL   V2 6 0:33:42 06:44 8.90
131 34821 VANDEWALLE EMILIE   SD 27 0:33:48 06:46 8.88
132 5056 FERNANDEZ MIGUEL   V1 20 0:33:51 06:46 8.86
133 34732 DEBROUX PASCAL   V2 7 0:33:51 06:46 8.86
134 5052 REMY ISABELLE   A2 2 0:33:51 06:46 8.86
135 346 CHARITA MARIJKE   SD 28 0:33:57 06:47 8.84
136 5092 BALFROID ANAIS   SD 29 0:33:57 06:47 8.84
137 3224 WAUTRIN MAXIME   SH 39 0:33:57 06:47 8.84
138 3189 MIGUEL ACEITUNO VICENTE   V1 21 0:34:02 06:48 8.81
139 1 DIAS NUNES JOANA   SD 30 0:34:15 06:51 8.76
140 5094 CAMPOY JOHANNE   A1 12 0:34:20 06:52 8.74
141 5068 KARIMI ADIL RCAS JH 22 0:34:24 06:53 8.72
142 5088 HIGUET ELI   SD 31 0:34:26 06:53 8.71
143 34849 PIETERS CAMILLE   SD 32 0:34:38 06:56 8.66
144 34852 LECOMTE JUSTINE   SD 33 0:34:38 06:56 8.66
145 1414 SARTORELLO GENNY   SD 34 0:34:40 06:56 8.65
146 5099 LEFEVER TIMOTHE THE.RUNNING.FAM JH 23 0:34:41 06:56 8.65
147 5097 WIEDEMANN CATHERINE THE.RUNNING.FAM A1 13 0:34:41 06:56 8.65
148 5100 LEFEVER BENOIT THE.RUNNING.FAM V1 22 0:34:42 06:56 8.65
149 5028 VAN CRIEKINGE JAN   V2 8 0:34:49 06:58 8.62
150 5026 CLAUDE-ANTOINE ZARATE   V1 23 0:34:49 06:58 8.62
151 5027 JANSSEN SEM   JH 24 0:34:50 06:58 8.61
152 34697 LIÉNARD CHARLOTTE   SD 35 0:34:52 06:58 8.60
153 34861 SANDRI PAOLO HEBE COOL RUNNI SH 40 0:34:53 06:59 8.60
154 3229 CHINELLATO MATILDE   SD 36 0:34:53 06:59 8.60
155 5081 VANWELDE CÉCILIA   JF 6 0:34:53 06:59 8.60
156 5083 VANWELDE PASCAL   V1 24 0:34:54 06:59 8.60
157 34865 VIVIER LYDIE   V1 25 0:34:57 06:59 8.58
158 138 PATIGNY MANON   SD 37 0:34:58 07:00 8.58
159 3226 SOTIAUX NILS   SH 41 0:35:04 07:01 8.56
160 40441 VAN ACHTER CIELTJE   A1 14 0:35:12 07:02 8.52
161 34636 LELOUTRE AUDE   SD 38 0:35:14 07:03 8.51
162 34727 VANWELDE PRIELLE   JF 7 0:35:17 07:03 8.50
163 34820 VANONGEVAL MAXIME   SH 42 0:35:23 07:05 8.48
164 34700 DEGREEF MICHAËL   SH 43 0:35:26 07:05 8.47
165 3196 TIMT BOGDAN KITURO xxx   0:35:35 07:07 8.43
166 5020 GORE CAMILLA   SD 39 0:35:43 07:09 8.40
167 5013 KÜRZINGER OLIVIER   V1 26 0:35:58 07:12 8.34
168 5077 VERNIER LAURENT   V1 27 0:36:04 07:13 8.32
169 5078 VERNIER PAUL   JH 25 0:36:05 07:13 8.31
170 5049 KRUIJVER THEO KRUIJVER V4 1 0:36:08 07:14 8.30
171 5010 LEGRAND STÉPHANIE   SD 40 0:36:10 07:14 8.29
172 5011 BERTIN PIERRE   SH 44 0:36:11 07:14 8.29
173 5012 BRUNETTI EMMANUELLE TRAJECT A1 15 0:36:11 07:14 8.29
174 3223 DEBAKKER ASTRID   SD 41 0:36:11 07:14 8.29
175 136 GUICHARDON JEANNE   SD 42 0:36:11 07:14 8.29
176 5050 RAMIRES EVA   SD 43 0:36:11 07:14 8.29
177 1663 ERBAS DERYA   A1 16 0:36:12 07:14 8.29
178 3227 BITAR DIANA   SD 44 0:36:20 07:16 8.26
179 3178 BEVERNAGE LALY   JF 8 0:36:24 07:17 8.24
180 34641 CREMER MÉGHANE   SD 45 0:36:32 07:18 8.21
181 34853 DENEUBOURG MILÈNE PERSPECTIVE.BRU SD 46 0:36:34 07:19 8.20
182 5093 BAUDOT BABETTE   SD 47 0:36:39 07:20 8.19
183 5057 DELENS ELISE   SD 48 0:36:39 07:20 8.19
184 5023 HUBACKOVA VERONIKA   SD 49 0:36:39 07:20 8.19
185 355 SESTI ELEONORA   A1 17 0:36:40 07:20 8.18
186 82 TAHIRI CHAIMA   SD 50 0:36:53 07:23 8.13
187 5053 DELANDE KARIN   A2 3 0:37:10 07:26 8.07
188 34744 POTELLE LUCIE   SD 51 0:37:11 07:26 8.07
189 34743 DELAUNE MAGALI   SD 52 0:37:11 07:26 8.07
190 3203 NUSSBAUM OLIVIER KITURO SH 45 0:37:14 07:27 8.06
191 34747 EL MAROUDI MARIA   A2 4 0:37:16 07:27 8.05
192 5016 BULINSKI EOIN   JH 26 0:37:16 07:27 8.05
193 3190 MANGA NANGA MELISSA   SD 53 0:37:26 07:29 8.01
194 1007 CUVELIER LOUISON PERSPECTIVE.BRU SD 54 0:37:29 07:30 8.00
195 34746 WILMART CHRISTINE   A2 5 0:37:30 07:30 8.00
196 5024 MOREAU CÉLINE TEAM CHAMPAGNAT SD 55 0:37:34 07:31 7.99
197 5035 GOLEMBECKI MARJORIE TEAM CHAMPAGNAT SD 56 0:37:34 07:31 7.99
198 5095 DIALLO TAIBOU   JF 9 0:37:41 07:32 7.96
199 3205 PEREZ SAN GREGORIO CAROLINA   A1 18 0:37:45 07:33 7.95
200 1535 PIJNAKER CHARLOTTE   SD 57 0:37:47 07:33 7.94
201 5041 AMEELS MYRIAM TEAM CHAMPAGNAT A2 6 0:37:54 07:35 7.92
202 357 MOUGIN AGATHE   SD 58 0:38:00 07:36 7.89
203 1177 SKERATH ESTHER LES GUSAIN BOLT SD 59 0:38:06 07:37 7.87
204 5034 LEGROS ZOÉ TEAM CHAMPAGNAT SD 60 0:38:11 07:38 7.86
205 5014 VANDEN BERGHE MAGALI TEAM CHAMPAGNAT SD 61 0:38:12 07:38 7.85
206 3192 DESTAILLEUR LAURENT   V2 9 0:38:17 07:39 7.84
207 5037 LEFEBVRE MARINE   SD 62 0:38:17 07:39 7.84
208 3186 RUIZ HERRERA ROBERTO   V2 10 0:38:19 07:40 7.83
209 3187 RUIZ ROUSSEAU AMALIA   JF 10 0:38:19 07:40 7.83
210 3005 MALAISSE MAUD   JF 11 0:38:21 07:40 7.82
211 3006 MALAISSE PIERRE   V1 28 0:38:22 07:40 7.82
212 978 HÉLÈNE VANDERHULST   A1 19 0:38:23 07:41 7.82
213 1584 SCHAACK CÉCILE   A1 20 0:38:31 07:42 7.79
214 5074 GIELEN ESTHER   JF 12 0:38:34 07:43 7.78
215 34855 DUJARDIN ANNE PERSPECTIVE.BRU SD 63 0:38:39 07:44 7.76
216 34819 GRISÉ VÉRONIQUE JCPMF EVERE A1 21 0:38:39 07:44 7.76
217 34856 DUSSART MAHAULT PERSPECTIVE.BRU JF 13 0:38:39 07:44 7.76
218 34857 TREFOIS ANNE PERSPECTIVE.BRU SH 46 0:38:39 07:44 7.76
219 5033 LEFEVRE FABIENNE JE COURS POUR M A2 7 0:38:40 07:44 7.76
220 1173 TILOUCHE YASMINA LOS UNOS A1 22 0:38:42 07:44 7.75
221 3177 BEVERNAGE ALINE   A1 23 0:38:43 07:45 7.75
222 5060 AMYAI SAMIA   A1 24 0:38:45 07:45 7.74
223 3207 HARRIS IVANA   SD 64 0:38:45 07:45 7.74
224 34860 DE GRAND RY JOSÉPHINE   A1 25 0:39:00 07:48 7.69
225 3228 CRISTEA CARMEN   SD 65 0:39:15 07:51 7.64
226 34643 XXX   xxx   0:39:51 07:58 7.53
227 3003 BAUGNET LUCILLE   SD 66 0:39:54 07:59 7.52
228 3168 DE BRUYN MARIE   SD 67 0:39:57 07:59 7.51
229 34864 SVEREPA OLGA   JF 14 0:39:59 08:00 7.50
230 3010 EL HADDAD KHALID   V3 3 0:40:01 08:00 7.50
231 5003 KUYPERS TANIA   A2 8 0:40:15 08:03 7.45
232 76 CACIOPPO SEBASTIEN   V1 29 0:40:29 08:06 7.41
233 78 CACIOPPO ELISA   JF 15 0:40:31 08:06 7.40
234 5090 BALTOFSKI KITA RCB A2 9 0:40:46 08:09 7.36
235 5091 HOTTON CATHERINE   A2 10 0:40:46 08:09 7.36
236 3221 ZUBKOW CATHERINE   A1 26 0:40:50 08:10 7.35
237 34736 ELENA SACHEZ   A2 11 0:40:58 08:12 7.32
238 34735 TORRES ANNA   A2 12 0:40:58 08:12 7.32
239 5080 DUPAIX LAETITIA   SD 68 0:41:03 08:13 7.31
240 34863 SVEREPA TAMARA   JF 16 0:41:29 08:18 7.23
241 34729 FUSATO CAMILLA   SD 69 0:41:50 08:22 7.17
242 996 HANA SUZANNE ECOLO-GROEN 103 A3 1 0:41:50 08:22 7.17
243 34639 XXX   xxx   0:41:51 08:22 7.17
244 1221 AICHA KARIMI RCAS JF 17 0:42:05 08:25 7.13
245 5054 ENCISO BELEN   A1 27 0:42:05 08:25 7.13
246 5063 JÄRVINEN HEINI   SD 70 0:42:15 08:27 7.10
247 34862 SVEREPA MILAN   V1 30 0:42:39 08:32 7.03
248 3193 BICKLEY ANNABELLE   JF 18 0:42:39 08:32 7.03
249 34846 CHAVENTRÉ ELSA   A1 28 0:44:32 08:54 6.74
250 34787 ILUNGA MARIE-SOPHIE   A1 29 0:45:00 09:00 6.67
251 5044 POMA JEANNE   SD 71 0:45:32 09:06 6.59
252 34724 ARROBA ALEXIS   SH 47 0:45:47 09:09 6.55
253 3007 TRAN KIM   SH 48 0:45:49 09:10 6.55
254 3008 BELABES HAKIM   SH 49 0:45:52 09:10 6.54
255 34774 CASTILLO VALERIA   SD 72 0:46:02 09:12 6.52
256 3009 EL HADDAD RACHIDA   A2 13 0:46:18 09:16 6.48
257 34841 CARLIER D'ODEIGNE MAUD   SD 73 0:46:33 09:19 6.44
258 34789 HEEREN AURELIE   SD 74 0:48:02 09:36 6.25
259 34737 COJOCARU MELANIA   A2 14 0:49:54 09:59 6.01
260 34748 COCKSHAW SOPHIE   A1 30 0:49:57 09:59 6.01
261 34791 GILARD MARIE   SD 75 0:50:54 10:11 5.89
262 34776 NDUAYA SOLANGE   A2 15 0:53:25 10:41 5.62
263 34775 XXX   xxx   0:57:29 11:30 5.22
264 34848 VAN DEN HENDE JEANNINE   A3 2 1:06:04 13:13 4.54
265 34847 HOBERG GUY   V4 2 1:06:05 13:13 4.54
266 3225 GODART YOAN   SH 50 1:06:58 13:24 4.48
267 34844 MAGHOUTI LOUBNA   A1 31 1:08:10 13:38 4.40
268 34718 BOYA ZHANG   SD 76 1:14:16 14:51 4.04
269 3188 DARTIGUES MARCO   JH 27 1:14:43 14:57 4.02
                 
Nos dernières videos